Tracking 19245 objects as of 14-Aug-2018
HD Live streaming from Space Station
objects crossing your sky now

PALAPA B1

Track PALAPA B1 now!
PALAPA B1 is classified as:


NORAD ID: 14134
Int'l Code: 1983-059C
Perigee: 35,814.2 km
Apogee: 35,844.7 km
Inclination: 14.7 °
Period: 1,437.9 minutes
Semi major axis: 42200 km
RCS: 1.2604 m2 (large)
Launch date: June 18, 1983
Source: Indonesia (INDO)
Launch site: AIR FORCE EASTERN TEST RANGE (AFETR)
aabbcc
Your satellite tracking list
Your tracking list is empty




NASA's NSSDC Master Catalog

Two Line Element Set (TLE):
1 14134U 83059C   18225.51339250 -.00000019 +00000-0 +00000-0 0  9995
2 14134 014.7488 353.4928 0003611 355.5718 037.1816 01.00144474092097
Source of the keplerian elements: AFSPC